GFSFLT1_sfc_wetblb_000.txt.gz
Wetbulb
69.79 69.60 70.08 71.06 72.79 72.67 72.95 72.34 71.50 71.15 71.99 71.77 70.84 69.76 70.13 70.80 70.28 68.42 68.56 69.11 68.59 67.56 67.22 67.57 69.09 69.08 69.20 69.35 69.48 69.70 69.82 69.42 69.48
69.08 68.46 69.45 70.72 72.19 72.48 72.25 71.03 71.18 71.43 71.81 71.43 70.46 69.60 71.04 70.92 70.86 70.40 69.26 69.97 70.19 68.31 69.15 67.81 67.76 68.62 68.75 68.91 69.13 69.65 69.57 68.43 68.67
69.15 68.39 69.25 70.60 71.35 71.60 71.06 70.64 71.22 71.38 71.71 71.06 70.53 70.16 70.31 69.04 69.22 69.74 69.57 69.44 69.02 69.08 69.40 69.28 68.86 68.71 68.60 68.54 68.74 68.64 69.09 68.90 68.74
68.93 67.99 68.05 69.87 71.29 71.86 70.27 70.54 70.47 70.59 70.61 70.29 69.82 70.19 69.79 69.32 68.91 68.79 68.62 68.20 69.06 69.33 69.59 69.40 68.94 69.16 69.00 68.67 68.56 68.58 68.05 67.77 67.01
68.91 69.77 67.54 67.92 70.86 71.23 69.42 69.71 69.12 69.20 69.49 69.15 69.18 69.13 68.90 68.58 68.94 69.05 68.35 68.09 68.52 69.09 68.63 69.40 69.05 69.11 69.24 68.76 68.56 68.62 68.11 67.00 66.71
68.74 69.81 68.52 67.43 69.22 69.45 68.95 69.27 69.30 68.79 68.96 67.67 67.78 68.39 68.08 68.22 68.16 68.30 68.01 68.00 68.16 68.43 68.82 68.72 68.91 69.03 68.29 67.89 68.13 67.89 67.72 67.36 66.08
67.86 69.00 68.78 68.07 68.24 68.47 69.09 69.23 69.74 69.56 68.66 67.71 67.51 67.61 67.22 67.66 68.24 68.24 67.90 68.12 68.45 68.39 69.00 68.73 68.97 69.24 68.73 68.49 68.30 67.73 67.43 66.36 65.60
66.49 66.89 67.68 68.22 67.85 68.07 69.15 69.31 69.74 69.36 68.86 68.54 68.59 67.54 67.52 67.58 68.53 68.75 68.35 68.66 68.97 68.93 68.60 68.10 68.63 68.05 68.09 67.79 67.21 66.74 66.73 65.34 65.13
64.49 66.32 66.99 67.93 68.41 68.48 68.71 68.83 68.78 68.45 68.44 67.82 68.90 68.36 67.52 68.22 68.62 69.05 69.20 68.57 68.66 68.34 67.81 67.60 67.86 67.33 66.87 67.16 66.46 60.59 61.31 62.48 64.47
63.71 65.47 67.11 67.33 67.94 68.51 68.78 68.50 67.79 67.18 67.88 68.18 68.41 68.50 68.17 68.17 69.02 68.70 68.85 67.80 67.89 67.54 67.57 67.53 66.71 66.58 66.63 66.69 66.94 60.89 60.41 60.98 64.27
63.90 64.98 66.76 67.67 68.21 68.77 68.76 67.78 66.49 68.01 67.20 68.13 68.36 68.33 68.11 68.33 68.53 68.31 68.46 67.54 66.96 67.22 67.36 66.82 66.18 65.96 66.33 66.14 65.76 59.48 59.54 60.32 64.41
64.89 66.19 67.86 68.62 69.11 68.81 68.28 67.36 67.27 67.60 67.53 67.47 67.24 67.19 67.66 67.89 68.41 68.12 68.02 67.17 67.24 67.30 66.63 65.55 64.99 65.79 65.97 65.78 65.75 57.47 57.97 60.01 64.27
65.88 67.32 68.60 68.65 68.49 67.83 67.38 67.98 67.51 67.49 67.09 67.37 66.67 67.01 67.32 67.49 68.25 68.24 67.38 67.49 67.14 67.15 66.53 65.13 64.81 64.95 65.89 63.32 65.37 59.03 56.42 59.23 64.63
66.87 67.36 68.00 68.64 68.09 66.88 67.70 69.08 68.84 67.79 67.27 66.70 67.62 67.72 67.14 67.42 68.71 69.34 68.97 67.78 67.51 66.55 66.26 65.86 65.65 65.37 65.75 65.59 63.55 64.58 56.11 54.41 63.44
66.37 66.57 66.81 67.68 67.12 67.20 68.69 69.70 69.48 68.50 68.13 70.42 69.32 68.52 67.87 68.66 69.04 68.71 66.43 68.49 66.87 65.97 65.86 65.03 64.99 64.93 64.08 63.20 65.09 57.70 55.50 52.85 52.64
66.40 66.78 66.72 67.12 67.12 68.29 69.14 69.59 69.52 68.22 70.05 70.41 69.54 69.40 68.05 66.94 65.71 67.39 68.24 67.57 66.80 64.16 64.06 62.33 60.48 61.11 61.13 61.66 63.03 63.44 55.20 53.48 52.34
65.94 66.40 66.42 66.97 66.71 66.39 66.88 68.13 68.45 69.00 69.63 69.47 68.10 67.09 66.20 66.34 66.98 66.81 67.46 66.31 64.81 63.46 61.77 61.31 61.60 60.71 60.96 61.12 61.88 62.38 60.89 60.19 61.30
64.46 65.22 65.39 65.73 66.38 66.34 66.31 67.75 67.38 67.43 67.59 67.06 66.05 65.83 65.49 66.06 65.67 65.49 65.45 66.55 62.52 63.02 57.30 57.43 58.53 61.17 60.99 60.21 59.70 58.11 45.84 46.50 54.66
64.64 65.26 65.06 65.46 65.74 65.78 64.90 65.12 65.25 66.38 67.43 67.08 66.84 65.30 64.52 64.09 63.49 63.33 62.59 63.56 60.14 46.36 46.70 44.42 42.94 42.51 48.58 57.84 46.22 42.30 40.81 41.28 41.10
60.51 64.91 64.76 64.74 64.44 64.33 64.85 64.67 64.62 65.24 65.87 66.30 65.89 64.88 63.98 63.23 60.25 61.66 63.68 63.95 60.62 52.46 49.09 44.74 42.65 42.57 42.51 41.30 41.06 40.89 40.43 41.63 41.59

GFSFLT1_sfc_wetblb_003.txt.gz
Wetbulb
68.13 68.87 69.47 69.96 71.37 72.32 73.35 73.43 73.46 72.22 73.27 73.46 72.97 71.03 71.51 71.78 71.26 68.81 68.81 69.66 69.10 68.12 67.97 68.01 70.28 69.99 69.99 70.09 70.12 70.08 71.12 69.75 69.35
67.86 68.93 69.94 70.03 71.28 73.14 72.97 73.25 72.68 72.00 73.34 73.53 72.20 70.96 72.73 72.12 71.61 71.07 70.23 70.84 70.70 68.83 70.21 69.00 69.23 69.55 69.63 70.11 69.93 69.80 70.57 68.35 69.21
66.52 69.56 70.47 70.26 70.83 73.09 72.95 73.29 71.87 71.63 72.36 72.44 71.97 71.42 71.66 69.82 69.46 70.39 70.76 70.41 69.96 70.10 70.20 70.24 69.77 69.39 69.37 69.59 69.79 70.60 70.84 69.58 69.85
66.21 68.83 70.54 69.92 70.98 72.48 72.96 72.60 71.15 70.07 71.12 71.38 71.35 71.26 71.14 70.03 69.54 69.64 69.99 69.21 69.21 69.86 70.48 70.43 69.82 69.46 69.03 69.26 69.27 69.70 70.03 69.15 68.67
66.16 70.16 71.25 70.55 71.19 71.88 71.95 70.94 70.58 69.42 69.47 69.94 70.46 70.68 70.56 69.55 69.78 69.68 69.04 69.03 69.00 69.73 69.31 70.02 69.59 69.35 69.29 68.92 68.94 70.00 68.62 67.81 67.74
66.36 69.67 71.06 70.67 71.11 71.57 71.95 70.41 71.58 69.27 68.68 68.81 69.31 70.05 69.66 69.46 69.37 69.35 69.54 69.40 69.26 69.18 68.87 69.04 69.10 69.45 68.88 68.61 68.70 68.39 68.51 68.41 67.21
65.46 68.45 70.47 70.39 70.17 71.53 72.77 71.76 71.95 69.99 68.83 68.70 68.61 68.62 68.17 68.90 69.22 69.80 69.47 69.84 69.42 69.48 69.60 69.20 69.03 69.77 69.31 68.49 68.28 68.32 68.22 67.76 67.25
64.37 66.91 69.35 70.71 69.08 70.85 73.32 71.88 72.51 70.39 69.15 69.37 69.01 68.64 68.29 68.58 69.53 70.19 70.22 69.69 69.60 69.44 69.25 68.69 69.00 69.36 68.61 67.86 67.99 66.35 67.67 67.63 66.37
62.07 64.31 67.95 70.26 70.47 70.11 71.56 71.01 70.19 69.59 68.90 69.13 69.88 69.13 68.52 69.12 69.33 69.62 69.62 69.65 69.31 69.30 68.85 68.91 69.33 67.85 68.27 68.64 66.14 62.12 61.80 63.61 65.01
62.72 63.56 66.48 68.81 70.54 71.66 72.18 70.52 71.49 69.29 68.94 69.58 69.06 69.33 69.40 69.03 69.31 69.29 69.54 68.91 68.68 68.36 68.77 69.93 69.31 67.66 67.41 67.77 68.66 60.59 62.43 63.07 64.13
64.58 64.90 65.21 68.48 69.93 70.98 71.22 71.13 70.39 69.91 68.90 70.20 69.90 69.35 69.13 69.22 69.28 69.02 69.38 69.12 68.68 69.13 69.12 69.49 68.59 68.00 68.21 67.88 66.92 59.51 60.48 62.01 64.30
66.13 67.17 67.83 68.84 70.44 71.06 71.83 70.85 70.49 70.00 68.31 68.60 68.51 68.64 69.03 69.22 69.04 68.96 69.11 68.32 68.83 69.29 69.21 68.03 67.41 68.02 67.15 68.38 68.01 58.12 58.28 61.69 64.26
66.99 68.15 69.45 69.81 70.71 71.12 70.86 70.43 67.64 68.89 68.18 68.87 68.43 69.15 68.83 69.39 69.31 69.07 68.66 69.37 69.48 69.34 69.09 66.73 65.78 65.76 66.92 63.62 67.65 61.77 56.55 59.46 63.31
68.33 69.19 70.12 70.94 70.79 70.07 72.07 70.90 70.61 70.49 69.76 68.83 70.03 69.26 69.12 70.02 69.76 70.76 70.20 69.98 65.51 67.68 67.82 67.57 66.82 65.37 66.98 66.87 64.81 62.34 56.84 55.27 63.30
67.86 68.59 69.39 70.15 69.55 69.57 70.04 71.42 71.92 71.08 72.01 72.92 71.75 71.33 69.86 70.38 71.49 68.56 66.81 70.01 68.82 68.46 67.88 66.69 65.20 64.15 63.60 59.80 63.06 59.70 57.68 54.89 53.91
67.94 68.68 69.04 69.62 69.03 69.69 70.83 71.27 71.43 70.36 72.72 72.31 71.29 71.46 71.35 70.55 70.05 67.99 67.67 68.92 69.16 66.01 67.00 66.23 59.53 60.90 60.65 61.86 61.04 63.06 55.84 54.54 53.03
68.01 68.50 68.41 68.59 68.74 68.39 69.23 70.80 71.06 71.34 71.41 71.74 71.16 71.15 69.70 69.56 69.75 68.49 68.82 68.09 66.28 64.24 63.26 60.97 61.35 60.78 61.13 59.33 61.81 60.33 59.76 59.86 60.38
68.29 68.43 68.59 68.71 68.00 67.74 68.12 69.37 69.50 69.99 70.49 70.98 69.46 68.47 67.60 66.94 66.18 66.84 66.29 67.54 62.67 62.74 58.50 56.13 59.58 59.81 60.30 59.38 59.59 55.74 46.01 46.66 54.80
67.20 67.16 66.98 67.49 67.24 66.40 67.63 68.01 68.32 68.42 69.30 68.72 67.86 66.53 65.86 64.87 64.36 63.90 63.18 62.33 60.51 46.02 46.29 43.40 42.15 42.34 48.05 55.38 45.77 42.48 41.20 42.24 41.91
63.71 65.93 64.91 65.00 65.07 65.91 66.86 67.17 67.20 67.37 67.96 67.36 66.79 65.78 64.81 63.50 61.58 62.16 62.75 63.65 63.50 60.64 52.22 45.43 43.31 42.73 43.30 43.02 42.10 41.62 41.28 42.39 44.14

GFSFLT1_sfc_wetblb_006.txt.gz
Wetbulb
66.51 66.58 68.92 69.60 71.07 70.90 72.32 73.52 75.18 74.54 74.37 74.02 74.24 74.02 74.13 73.49 74.49 72.60 72.35 73.65 71.54 70.60 70.18 70.91 73.05 72.24 72.44 71.66 71.71 71.36 71.34 69.82 69.52
65.54 65.89 67.70 69.46 71.25 71.13 72.98 73.40 74.29 74.35 74.07 74.35 73.93 73.03 74.71 74.21 74.29 73.71 73.19 73.92 73.71 71.07 73.56 70.07 70.63 71.53 71.39 71.50 71.20 70.77 71.14 69.14 68.74
63.75 67.52 67.94 68.98 70.09 71.59 73.54 73.88 74.26 74.00 74.44 74.21 73.27 73.22 73.17 72.88 73.20 73.24 73.47 73.34 72.41 72.49 72.52 72.62 71.79 71.27 70.82 70.64 70.64 71.01 70.09 69.12 68.35
62.54 64.19 67.80 70.35 70.89 72.47 73.92 73.49 73.49 72.35 72.97 73.39 72.35 72.61 73.33 73.44 71.79 71.84 72.59 71.78 71.62 72.07 73.13 73.00 72.01 71.29 70.44 69.76 69.22 70.11 69.35 69.43 68.20
64.03 66.16 68.06 71.40 71.31 72.93 73.16 72.94 72.53 71.35 70.93 71.49 71.79 72.18 73.25 72.55 72.23 72.24 72.37 71.77 71.62 72.55 72.02 72.44 71.62 71.00 70.18 68.88 68.94 69.08 68.04 67.63 67.77
67.40 68.36 71.24 72.16 71.64 71.33 72.49 72.68 72.29 70.61 70.08 69.94 70.84 71.68 70.07 71.69 71.88 71.58 71.78 71.87 72.11 71.98 71.70 70.93 70.95 70.63 69.57 68.65 68.71 68.84 68.33 68.14 67.38
65.77 69.30 69.35 71.79 71.78 71.94 72.39 72.54 71.71 71.16 69.81 69.32 69.86 69.49 69.91 70.86 71.16 71.45 71.27 72.20 72.41 71.79 71.35 70.95 70.66 70.50 69.96 68.94 68.83 68.59 67.90 67.65 67.03
64.40 67.64 69.02 71.68 71.25 72.05 72.51 72.33 71.64 71.67 69.98 70.85 70.78 70.06 70.48 71.22 72.10 71.90 72.01 71.84 71.76 71.39 71.27 70.78 71.15 70.10 69.70 69.40 68.75 67.02 68.12 67.59 66.77
63.95 65.47 66.08 69.27 71.97 71.53 73.22 72.48 71.46 70.31 70.18 70.84 72.16 67.63 69.67 71.58 71.64 71.19 70.83 71.48 71.79 71.19 71.26 71.07 70.88 69.42 69.09 68.86 67.46 63.22 64.93 65.58 66.63
64.05 65.46 66.64 67.59 71.18 70.67 73.83 72.26 71.64 69.65 70.58 71.19 70.90 70.10 70.54 70.92 71.18 70.72 71.16 71.08 70.96 71.09 71.45 70.96 70.16 69.40 68.60 68.31 68.07 61.77 61.97 64.10 64.92
63.37 65.86 66.72 68.11 69.89 72.20 73.50 72.60 71.58 71.61 70.40 70.34 71.01 70.33 70.32 70.54 70.71 70.35 71.09 70.75 70.54 71.31 71.02 70.46 69.27 68.38 68.75 68.16 67.03 60.28 59.70 61.84 64.22
64.81 67.49 70.03 70.38 68.97 71.03 73.44 71.93 71.94 71.40 69.02 69.63 69.86 69.46 69.95 70.35 70.51 70.19 70.35 70.17 70.33 70.73 69.71 69.30 68.81 68.67 67.97 66.74 67.25 59.63 57.59 59.40 63.83
65.99 67.10 69.90 71.02 72.07 72.77 72.97 72.31 72.11 70.19 68.60 69.32 68.46 69.02 70.06 70.82 70.86 70.81 70.15 70.18 69.87 69.23 71.14 68.52 66.54 66.45 67.58 65.24 67.93 57.78 57.26 59.70 59.48
67.54 68.51 69.63 71.33 72.98 72.72 72.70 72.78 71.08 68.27 68.52 68.87 70.06 70.66 71.03 71.17 71.41 71.67 71.57 71.85 71.06 69.71 67.38 66.55 66.84 67.05 66.85 66.88 65.64 63.29 58.25 56.58 60.17
68.01 68.98 70.00 71.15 72.58 72.17 72.89 73.01 72.07 69.02 69.37 72.09 74.02 72.71 71.89 72.04 72.27 69.48 67.55 70.99 70.08 67.42 68.70 66.33 65.90 65.85 63.58 62.95 63.52 57.67 57.23 56.62 55.55
68.25 68.93 70.02 71.05 71.48 73.00 72.64 72.43 74.12 72.94 73.80 75.12 74.57 74.56 73.51 73.06 73.44 71.63 71.91 69.89 68.02 67.78 66.09 65.36 66.48 63.72 61.04 59.88 62.09 63.74 57.33 54.79 53.44
68.74 66.07 69.57 70.34 71.43 71.20 71.35 74.10 73.49 73.57 72.93 73.94 72.61 72.90 73.15 73.09 71.63 71.86 70.70 68.26 68.96 63.63 66.00 64.14 63.17 60.46 62.83 62.25 62.66 58.37 55.05 56.53 58.20
65.69 70.09 66.77 66.89 66.07 64.99 63.90 64.41 65.11 66.38 68.46 69.06 70.86 71.41 71.70 71.22 69.20 68.52 67.39 58.58 56.96 62.66 53.63 53.41 59.35 57.40 58.41 56.48 57.73 51.89 45.61 46.05 51.59
68.25 67.84 67.89 65.82 67.14 65.74 62.53 64.05 65.86 67.74 67.22 69.76 69.81 68.94 67.95 67.09 66.57 61.45 66.13 60.60 56.50 45.64 45.23 43.07 42.08 43.07 48.94 51.43 45.90 43.11 42.21 42.09 42.20
64.17 67.69 66.24 62.68 63.27 63.11 62.76 62.25 67.59 69.59 69.65 68.16 68.88 67.65 66.97 65.65 61.65 64.51 64.20 64.14 62.84 59.96 51.26 45.97 44.36 44.00 44.20 44.44 43.77 42.84 41.95 42.93 43.44

GFSFLT1_sfc_wetblb_009.txt.gz
Wetbulb
63.01 62.13 66.10 66.51 66.99 67.62 70.01 71.26 73.28 72.78 70.68 69.75 68.37 67.64 65.47 64.35 64.55 63.94 64.66 66.63 65.23 63.13 62.70 64.27 65.60 65.03 65.97 65.71 66.18 65.97 65.46 64.30 63.82
61.63 62.38 65.03 66.03 67.01 67.49 69.77 71.04 72.61 71.55 70.46 69.86 68.66 67.69 66.36 65.55 65.77 65.39 65.84 65.56 64.88 63.83 66.00 65.22 65.55 65.48 65.00 65.64 66.09 66.01 64.61 64.17 63.80
61.36 62.02 65.47 66.43 66.77 68.20 69.83 71.72 71.94 71.25 70.83 69.87 69.41 68.10 67.75 67.78 67.38 66.69 65.91 65.48 64.43 64.76 64.34 65.79 65.24 65.57 65.42 65.35 64.83 65.13 64.77 63.32 63.58
60.65 62.73 63.75 65.58 67.90 68.91 70.14 71.48 71.15 70.66 70.53 70.07 68.93 68.59 68.08 67.69 67.80 66.80 66.35 65.38 64.78 64.99 65.50 66.22 65.71 65.64 65.09 64.74 64.75 64.91 64.40 63.56 63.76
59.27 61.38 63.49 66.15 66.97 67.80 70.27 70.45 70.27 70.10 70.59 69.73 68.18 68.45 68.24 66.66 64.37 64.84 65.69 64.93 64.82 65.09 64.90 65.49 65.25 65.06 64.96 64.78 64.39 64.23 63.57 62.50 63.45
60.43 60.69 64.90 64.92 63.24 66.00 69.79 69.94 69.00 69.10 69.94 69.48 68.11 67.75 67.93 65.88 65.29 64.42 64.32 64.94 64.89 64.95 64.73 64.33 64.17 64.88 64.30 64.00 63.85 63.79 63.83 63.38 63.08
61.61 61.82 66.41 66.39 68.17 69.24 69.55 69.72 68.32 67.86 68.24 68.73 68.11 68.02 67.68 65.92 65.70 64.95 65.32 65.38 65.38 65.37 65.10 64.68 65.09 65.18 64.57 64.21 64.27 64.24 64.38 64.00 62.24
58.39 60.23 63.17 66.27 66.55 69.23 69.20 69.05 68.05 67.48 67.02 67.57 67.83 67.11 66.22 65.75 65.86 65.56 65.83 65.69 66.05 65.60 65.10 65.56 65.01 64.64 64.30 64.26 64.91 65.41 61.75 63.12 64.05
58.00 58.24 59.34 63.62 67.68 67.96 69.01 69.20 67.65 67.23 66.08 65.74 66.43 66.04 65.84 66.86 66.82 66.07 65.75 65.60 65.71 64.98 64.64 65.02 65.09 63.88 63.23 63.41 65.13 62.44 62.95 62.39 60.35
57.79 59.04 59.62 59.44 61.39 67.30 69.27 69.58 68.53 66.73 65.57 65.95 65.71 65.19 65.67 66.20 66.58 65.78 65.61 65.91 66.10 65.79 65.41 64.26 62.84 63.87 63.58 62.74 63.23 62.20 61.78 62.86 59.98
58.52 59.14 60.21 60.22 62.05 68.00 70.00 69.21 67.44 66.94 67.16 65.29 64.56 64.57 64.97 65.85 65.37 65.44 65.69 65.37 65.23 65.14 64.02 63.12 63.27 63.19 62.83 63.14 63.29 60.54 60.00 60.82 58.95
59.88 61.58 62.40 62.89 63.30 68.59 69.73 68.23 67.62 66.88 65.42 64.58 64.99 64.47 65.14 65.94 65.83 65.01 65.28 65.39 65.04 64.73 64.35 63.58 63.93 63.41 62.49 62.34 61.36 58.00 57.64 58.46 57.93
62.24 63.26 63.54 63.34 64.25 68.00 68.76 68.32 67.67 65.90 64.50 64.61 64.62 65.19 65.61 66.33 65.84 65.53 65.27 65.41 65.61 64.73 64.13 63.29 62.82 60.58 62.45 60.78 59.19 57.81 57.33 57.24 56.67
62.77 62.39 64.12 65.46 65.67 67.80 67.97 68.42 67.25 64.82 64.04 63.76 65.30 65.29 66.20 66.64 66.41 66.19 66.04 66.02 65.30 64.48 63.71 59.36 59.38 60.70 61.58 61.03 59.93 58.02 56.37 55.44 55.62
62.53 62.37 64.59 65.64 67.24 67.65 67.85 67.55 66.13 63.53 63.36 65.36 66.07 65.98 66.23 66.82 66.81 67.53 67.41 65.99 65.77 64.33 62.46 61.16 60.62 59.59 59.89 58.90 59.37 56.11 54.71 55.06 54.20
61.02 63.44 64.83 66.31 67.53 66.27 65.81 65.85 65.55 61.77 58.11 57.68 63.60 67.16 66.51 67.06 67.50 67.49 64.32 64.46 63.99 62.35 61.47 61.44 60.69 59.02 58.19 56.89 57.45 56.23 54.59 52.82 53.01
62.38 64.26 63.62 62.94 61.95 60.09 59.38 60.69 60.23 60.45 60.41 60.58 59.38 61.42 66.27 65.96 66.68 64.92 64.79 63.18 61.75 60.72 59.78 58.24 58.07 56.78 55.68 55.70 55.19 50.17 49.51 51.04 51.10
62.96 63.14 63.11 63.61 61.66 61.56 60.35 60.74 60.26 60.38 61.06 60.67 59.30 58.56 60.46 64.73 65.03 63.13 57.54 54.26 54.24 57.96 48.62 50.37 54.21 52.26 52.13 51.51 49.58 47.35 44.40 45.71 48.13
61.71 61.46 63.05 62.01 60.21 60.12 60.04 61.04 61.15 60.93 59.83 59.87 58.49 58.63 62.77 62.81 61.81 60.17 57.80 53.28 49.05 45.23 45.55 42.75 42.54 43.26 48.49 46.76 45.83 43.17 42.26 42.01 41.44
61.75 61.35 61.48 62.00 61.58 61.52 60.95 60.55 59.86 61.51 61.15 61.16 62.74 62.84 60.60 60.60 57.39 58.51 58.39 54.32 51.20 48.19 46.96 44.96 43.38 43.24 43.82 44.92 44.53 43.26 42.32 42.76 42.08

GFSFLT1_sfc_wetblb_015.txt.gz
Wetbulb
63.18 63.89 66.66 67.25 67.94 67.76 68.07 69.35 70.06 70.83 70.68 70.13 70.13 68.07 64.97 61.17 60.90 60.53 60.22 59.78 61.55 60.87 61.52 62.82 63.30 63.11 63.51 62.36 63.17 63.36 63.17 62.26 61.69
61.54 63.09 65.93 67.04 68.23 68.34 68.39 69.25 70.02 70.84 70.80 70.28 69.47 66.77 63.08 60.90 60.86 61.01 60.59 61.94 62.62 60.61 60.70 63.56 63.54 63.41 63.43 63.32 63.21 63.55 62.42 61.84 61.64
61.36 63.34 64.59 66.38 67.96 67.79 68.98 70.04 70.60 71.14 71.54 70.57 69.09 64.77 63.87 62.39 61.92 62.92 63.32 63.33 62.34 61.85 62.71 63.01 63.09 62.92 62.81 62.46 63.27 62.54 61.66 61.25 61.70
61.29 62.92 64.01 65.07 66.65 67.37 67.89 70.21 70.41 70.57 71.21 70.05 66.62 66.26 63.58 62.31 62.07 62.92 63.25 63.00 62.47 62.85 62.22 62.34 62.41 62.78 62.78 62.82 62.49 62.23 61.69 61.41 61.68
61.92 63.48 64.00 64.98 65.67 66.54 66.43 68.19 69.79 70.14 70.86 69.54 67.64 66.42 64.35 62.89 63.22 63.18 63.23 63.03 62.73 62.50 62.14 62.37 63.09 63.54 63.09 62.85 62.62 62.52 61.73 61.07 61.40
58.56 60.37 62.55 64.20 64.79 65.52 66.25 66.99 68.68 70.12 70.70 69.65 67.73 66.33 64.31 63.53 63.86 64.26 63.79 63.65 63.16 62.73 62.26 62.32 63.49 62.57 62.28 61.88 61.93 61.66 61.47 61.09 60.81
58.64 59.58 61.00 62.67 64.23 65.10 65.82 66.58 68.06 70.15 70.43 69.98 67.96 66.19 64.75 63.67 64.07 64.90 64.76 64.42 63.84 62.79 62.28 62.04 61.96 61.66 61.63 61.56 61.95 62.14 61.81 61.66 61.32
57.36 58.76 59.78 61.68 62.88 63.78 64.39 65.39 67.24 70.01 70.23 69.47 68.25 65.93 64.87 63.93 64.77 65.48 64.66 64.71 64.08 63.36 63.00 63.03 62.29 61.92 62.04 62.37 62.95 63.35 61.87 61.77 61.45
57.00 57.25 59.98 61.81 62.61 61.89 62.70 65.19 67.16 69.24 69.59 68.92 68.42 66.58 64.93 65.24 65.12 64.35 63.02 63.15 63.82 63.50 62.46 62.97 62.52 62.13 62.18 62.08 63.23 62.12 62.40 63.02 58.58
57.54 57.73 59.47 60.25 60.52 60.73 60.78 64.10 67.77 68.13 68.90 69.12 67.66 66.44 65.68 65.57 65.63 65.74 64.55 63.94 63.61 62.83 63.03 62.79 62.70 62.38 62.37 62.00 61.61 60.69 60.74 62.80 59.96
54.61 56.05 57.36 59.71 61.49 62.81 63.23 62.70 66.88 67.73 68.10 67.86 67.04 64.84 65.68 66.12 65.43 64.74 64.55 64.30 63.73 63.20 63.41 62.57 62.66 62.38 61.78 61.58 62.03 59.38 59.29 61.16 59.84
55.29 55.75 55.52 56.07 57.90 61.05 63.14 65.39 65.74 66.28 65.66 66.50 65.93 64.72 65.03 65.81 65.84 64.29 64.18 63.17 63.60 63.09 63.29 62.58 62.84 61.38 60.57 61.06 61.45 58.34 57.34 57.73 57.58
56.94 57.69 58.84 58.65 59.07 61.42 63.69 64.77 65.77 64.88 64.10 65.03 65.10 65.06 64.48 65.30 65.45 64.99 64.00 63.57 63.30 63.41 62.92 62.86 62.12 60.92 60.86 60.78 61.83 58.39 55.98 55.98 55.71
57.63 58.21 58.88 60.26 62.51 63.35 64.42 65.26 64.50 62.32 62.64 62.91 63.34 63.88 64.01 64.07 63.83 63.37 63.55 63.42 63.74 63.49 62.03 60.39 60.36 60.31 61.07 61.64 60.80 59.52 55.02 54.02 54.73
57.34 58.85 62.10 64.71 63.83 63.18 64.04 63.97 63.64 61.96 61.30 62.53 63.47 63.84 63.03 61.77 63.38 65.07 64.14 63.46 60.97 58.81 60.05 61.28 59.90 59.69 59.76 59.21 58.79 54.76 53.38 52.73 53.39
60.47 63.03 63.20 62.61 62.38 61.74 61.48 62.07 62.65 61.12 59.60 60.65 61.21 60.26 59.44 59.89 60.37 62.51 62.19 61.45 57.76 57.38 58.14 60.68 59.42 58.37 56.52 55.80 54.90 51.58 49.99 49.86 50.99
61.06 60.69 59.81 60.74 61.05 59.58 57.89 58.55 59.25 59.05 60.21 61.47 61.24 60.14 59.45 59.07 58.85 58.52 59.14 59.97 59.43 59.65 60.30 59.34 58.23 57.07 56.12 54.15 51.22 49.56 48.47 48.97 48.31
61.47 60.82 59.59 59.65 58.81 58.35 57.57 58.84 59.55 60.29 59.85 60.92 59.60 58.20 58.35 58.07 59.64 59.95 59.28 52.01 50.96 56.30 52.22 53.26 57.00 55.70 54.27 52.60 49.92 48.99 46.14 45.09 46.32
62.00 60.80 60.15 59.25 58.79 59.08 58.64 59.07 59.18 58.96 58.61 59.37 57.19 56.51 56.48 56.22 57.04 57.66 56.86 52.84 48.89 45.64 44.66 42.88 43.17 45.70 48.43 45.91 45.82 43.88 42.26 41.10 40.74
58.85 60.27 58.69 59.36 59.41 58.95 57.98 57.80 57.96 58.47 58.19 58.79 56.82 55.31 55.39 55.12 56.20 56.54 55.60 51.95 48.96 47.37 46.36 42.63 40.92 41.31 42.66 43.85 43.52 42.06 41.52 40.31 40.52

GFSFLT1_sfc_wetblb_021.txt.gz
Wetbulb
66.92 67.08 68.31 68.83 70.23 70.52 71.07 71.60 72.87 73.52 73.74 74.01 75.25 74.76 76.03 76.31 76.11 74.85 73.05 73.62 71.71 69.69 69.58 69.49 71.65 71.74 71.79 71.29 70.55 70.35 70.14 69.39 69.27
65.74 67.03 68.04 68.49 69.53 70.32 71.32 72.06 72.56 73.21 73.80 74.25 75.03 74.48 75.89 75.61 76.09 75.30 73.62 73.71 70.84 69.74 70.47 69.74 70.78 71.35 70.99 70.26 69.47 69.75 70.48 69.02 69.45
65.07 67.02 68.05 68.75 69.93 71.04 72.01 72.41 73.10 73.78 74.23 74.09 74.82 74.64 75.11 74.80 74.78 74.23 74.08 71.30 67.88 69.60 69.82 70.14 70.72 70.49 70.33 69.74 69.81 70.06 70.30 69.14 69.23
63.89 65.93 67.39 68.95 70.58 71.61 72.30 72.57 72.61 73.06 73.56 74.26 74.53 74.96 75.49 75.34 73.95 72.76 68.21 69.73 66.56 66.95 68.40 68.95 70.00 69.52 69.51 69.71 69.71 69.85 69.61 69.34 68.88
63.86 65.74 66.99 68.65 69.82 70.62 71.32 72.37 72.09 72.18 73.41 73.52 74.26 74.95 75.01 73.60 71.67 67.16 70.02 68.59 68.26 67.67 67.41 68.13 68.28 68.70 69.20 69.38 69.61 69.67 69.17 68.53 67.76
64.74 65.50 66.68 68.05 69.24 70.77 71.77 72.21 72.90 72.90 73.15 73.05 73.71 74.61 73.32 72.16 67.06 69.12 67.87 66.98 67.42 66.66 67.15 66.70 66.93 67.75 68.39 68.37 69.08 68.80 69.22 68.71 68.12
64.54 65.32 66.07 67.42 68.77 70.31 71.60 72.71 73.25 73.31 73.07 73.51 73.91 73.98 72.85 70.81 68.43 69.25 68.62 67.92 66.27 64.70 65.77 65.41 66.21 66.91 67.49 68.32 68.78 68.76 68.26 68.09 68.05
64.10 64.31 65.55 67.23 67.88 70.02 71.54 72.23 73.23 73.30 73.30 74.33 74.82 73.84 72.54 71.20 68.95 69.81 69.19 68.85 67.43 64.24 64.88 65.47 66.77 66.18 66.86 67.78 67.95 67.63 68.00 67.89 68.23
63.87 64.80 65.51 66.84 68.15 68.94 69.89 71.15 71.30 72.04 72.81 73.49 74.61 73.05 72.06 71.01 68.98 69.51 69.07 68.44 68.02 66.83 64.62 65.79 66.69 66.03 65.94 67.08 67.16 63.35 63.02 66.57 68.39
64.44 65.82 66.66 66.62 67.73 69.42 69.91 70.17 71.02 70.96 72.24 73.92 73.49 72.79 71.85 69.41 69.36 69.26 68.68 67.86 67.61 67.46 66.84 66.93 66.47 66.54 66.89 67.57 67.54 62.05 61.76 63.82 68.18
64.73 65.92 66.88 67.00 67.15 68.34 69.74 70.28 70.52 71.94 72.59 73.48 72.93 72.07 70.62 69.78 69.35 68.95 68.98 67.97 67.22 67.86 68.05 66.35 66.83 67.30 68.14 67.92 68.36 61.17 60.26 62.19 67.40
64.12 64.86 65.77 66.87 67.60 68.37 68.88 69.90 71.29 71.92 72.46 72.84 72.36 71.30 70.10 69.89 69.43 68.83 68.01 67.11 66.92 68.16 68.05 67.27 67.13 67.88 68.17 68.11 68.66 58.63 58.62 60.20 64.20
63.69 65.26 66.58 67.15 68.11 68.89 69.27 69.22 71.20 71.46 71.67 71.90 71.26 71.36 70.51 70.17 69.53 68.78 67.45 67.38 67.47 68.38 68.13 67.68 67.37 67.25 67.95 65.37 68.06 58.09 56.77 59.72 61.39
64.74 64.96 65.43 67.41 68.88 69.18 70.01 70.72 70.48 70.49 71.09 70.91 72.07 71.88 70.91 69.78 69.17 68.28 68.30 68.08 68.16 68.06 67.63 67.38 67.48 67.25 67.84 66.64 66.38 62.63 55.52 55.50 60.31
66.28 66.96 67.87 68.73 68.18 68.59 69.75 70.65 71.09 70.47 70.47 71.94 71.69 69.99 69.62 68.89 69.02 68.02 67.92 68.08 68.11 68.31 67.82 67.55 67.48 66.44 63.58 66.46 67.29 57.93 55.42 54.45 54.97
65.55 66.16 66.68 67.97 68.14 68.37 69.27 70.18 70.39 68.99 66.37 68.73 69.82 70.39 69.06 67.75 67.71 68.18 67.93 67.49 68.02 67.35 67.80 67.35 66.52 62.77 63.21 64.18 64.22 63.16 52.83 51.62 52.02
65.30 65.80 66.40 67.65 68.61 68.07 67.54 68.39 67.06 68.34 68.80 69.85 69.68 68.73 68.44 68.24 68.14 67.59 68.03 67.30 67.26 66.30 65.52 65.12 63.22 62.97 62.84 62.81 61.68 61.87 58.85 57.73 57.71
65.80 66.12 65.94 65.97 66.38 66.47 65.28 66.54 67.16 67.73 67.48 67.08 67.93 67.94 67.86 67.34 66.18 65.42 62.02 58.31 58.67 62.98 63.25 59.05 62.95 63.23 62.72 61.48 62.28 61.60 55.67 56.07 59.42
65.54 65.49 65.67 66.13 65.72 66.08 64.98 64.62 66.26 66.92 66.64 66.84 66.78 65.87 65.40 64.94 64.47 62.59 60.53 58.42 55.77 44.28 44.18 43.60 44.84 46.09 57.04 58.79 48.54 44.54 44.37 43.71 42.98
60.90 64.89 64.74 64.54 65.70 65.40 65.77 66.23 66.20 66.11 66.40 67.11 66.07 64.06 63.28 63.01 62.35 61.78 59.52 58.74 59.03 57.09 48.41 42.59 41.27 41.50 42.87 45.03 44.36 41.78 40.61 40.56 39.83

GFSFLT1_sfc_wetblb_024.txt.gz
Wetbulb
68.33 69.37 69.83 69.49 70.67 71.27 71.99 72.82 74.58 75.52 77.86 78.54 78.41 77.74 79.05 79.49 78.79 77.29 77.01 77.40 75.98 73.60 71.72 72.02 74.31 73.37 73.66 73.75 73.52 72.98 72.05 70.33 70.10
66.27 68.76 69.80 70.14 70.83 71.95 72.52 73.83 75.65 76.86 77.93 78.99 79.11 77.69 79.24 78.54 78.46 77.95 77.51 78.01 77.81 74.85 74.76 72.50 73.19 73.55 72.79 73.21 73.15 72.39 71.89 70.22 70.60
65.35 67.61 69.35 70.28 71.08 71.94 73.26 74.14 75.05 75.97 77.65 78.38 78.18 77.48 77.66 77.22 77.60 78.08 78.21 77.62 76.82 75.67 74.12 73.10 72.24 72.66 72.57 72.41 72.17 71.64 72.17 70.56 70.65
63.64 65.48 68.51 70.23 71.21 72.29 73.72 74.36 74.74 75.40 76.11 76.47 76.65 78.15 78.42 78.65 77.21 77.36 76.99 76.75 76.39 75.11 73.51 72.65 72.06 72.30 71.81 71.60 70.99 71.48 71.50 71.04 69.72
63.29 65.01 67.26 69.75 71.24 72.24 72.69 73.73 74.50 74.93 75.64 75.87 76.51 77.99 78.93 77.51 77.94 77.41 76.44 75.52 74.11 73.62 72.13 71.87 71.10 70.55 70.50 70.39 71.07 71.62 70.87 69.85 69.12
64.83 68.45 68.86 69.67 70.84 72.00 72.66 73.59 75.52 74.81 75.50 75.60 76.36 76.80 76.80 77.22 76.93 76.31 74.91 74.34 73.45 71.40 70.92 71.02 68.49 69.90 69.58 69.87 70.56 70.89 71.15 70.25 69.19
64.73 66.82 69.35 70.21 70.70 71.83 73.13 74.24 76.54 76.69 75.44 75.94 76.20 76.41 76.44 77.57 76.64 75.96 75.33 74.86 72.16 70.58 70.99 70.45 69.56 68.18 69.92 70.65 70.84 70.48 70.01 70.14 69.78
63.33 67.54 69.20 70.36 70.85 71.99 73.64 74.44 76.23 75.75 75.83 76.25 76.66 76.24 76.10 76.67 77.67 75.49 74.68 75.73 73.43 72.48 71.56 70.33 69.66 68.69 69.09 69.97 69.65 69.04 70.12 70.17 69.15
63.22 66.44 69.26 70.40 71.14 72.27 73.31 74.16 74.92 75.53 75.65 75.83 76.52 76.17 76.14 76.96 75.97 74.01 75.22 74.50 73.37 71.74 71.60 70.85 70.26 69.52 69.50 69.71 68.70 64.14 64.44 68.38 69.02
63.90 64.93 69.04 70.38 71.29 72.29 73.61 74.41 75.52 75.13 75.67 76.20 76.18 76.62 76.69 76.35 75.76 74.21 73.69 73.71 72.32 72.23 69.93 69.24 70.58 69.81 69.50 69.31 69.77 61.86 62.43 64.40 68.71
65.16 65.92 67.30 70.48 71.48 72.19 73.73 74.44 74.98 75.33 75.72 76.15 76.22 76.35 76.22 76.00 75.20 73.73 73.50 73.23 72.08 71.14 69.12 69.77 69.43 69.79 70.06 70.07 69.42 61.64 60.84 63.37 68.10
67.19 67.83 69.09 70.54 71.98 72.74 73.78 73.65 74.49 74.74 74.73 75.45 75.77 75.38 75.53 75.22 74.26 73.51 72.58 72.27 71.91 70.95 69.80 69.01 69.38 69.54 69.68 69.97 70.15 59.83 59.26 62.41 67.85
66.20 67.28 69.64 70.89 71.48 72.08 72.88 73.53 74.19 74.18 74.35 74.88 74.54 74.95 75.11 75.03 74.55 73.72 72.75 71.57 71.99 71.31 70.31 68.48 68.69 69.10 70.75 66.41 70.34 57.41 57.01 62.43 67.34
67.86 68.95 70.40 71.48 71.90 71.67 72.78 73.90 74.55 73.93 74.32 73.98 75.28 75.51 75.28 74.78 74.52 73.20 72.48 71.93 71.54 70.55 69.84 69.07 69.21 69.44 69.48 69.89 69.28 68.39 55.52 56.69 65.77
68.74 69.66 70.56 71.84 72.05 72.12 72.65 74.17 74.68 74.18 73.98 75.32 75.85 75.43 74.56 73.86 73.23 71.86 70.77 70.38 69.28 69.33 68.34 67.50 68.22 69.24 69.39 69.73 70.76 61.37 54.66 54.03 55.35
68.93 69.75 70.33 71.47 71.54 71.93 73.29 74.35 74.50 73.54 74.23 75.30 74.81 74.39 73.46 71.91 70.76 70.80 70.61 69.19 68.85 67.21 68.07 67.41 67.61 68.60 67.87 67.94 67.22 64.78 54.14 52.20 53.27
67.91 68.98 69.54 70.59 71.10 71.40 71.94 73.08 73.76 73.17 73.51 74.03 72.98 72.26 71.09 70.21 69.44 68.29 69.12 68.82 68.69 67.93 67.27 66.49 66.64 67.67 66.20 64.83 64.40 62.67 63.03 61.66 56.12
68.60 69.17 70.35 71.32 71.62 71.69 72.06 72.73 72.32 72.87 72.39 72.92 70.95 70.78 70.36 68.51 67.96 67.00 64.22 60.34 58.95 65.03 60.93 59.83 67.29 65.37 65.23 63.76 63.71 64.00 56.60 57.05 64.05
68.46 67.89 69.93 69.57 70.29 70.61 70.18 71.15 70.68 70.36 72.30 71.73 70.84 69.92 69.23 68.38 68.49 68.24 68.11 65.58 60.71 44.65 45.49 44.45 46.02 47.44 59.59 54.70 49.64 45.42 44.97 45.67 43.57
65.24 69.39 69.51 68.85 68.77 69.72 70.51 69.62 69.76 70.98 70.12 70.61 70.40 69.58 68.77 67.42 66.15 67.06 66.11 65.30 64.19 62.05 52.24 43.36 41.77 41.95 43.55 45.05 44.36 42.18 42.05 40.74 40.83

GFSFLT1_sfc_wetblb_027.txt.gz
Wetbulb
67.54 69.56 69.96 69.77 70.69 70.75 72.19 73.63 75.94 76.71 78.12 80.04 81.09 80.91 80.81 81.49 81.49 77.74 77.30 78.43 76.02 74.55 72.57 72.92 77.20 75.75 75.35 74.31 74.77 74.48 73.54 70.92 70.36
64.60 68.17 69.69 70.03 70.38 70.71 70.88 73.32 75.53 76.51 77.73 79.81 80.93 80.31 81.41 81.12 81.15 80.25 77.58 79.17 79.82 76.56 77.99 73.41 75.54 75.10 74.50 74.55 73.43 73.18 73.07 70.33 70.94
63.74 65.51 68.34 70.14 70.58 71.21 72.48 72.34 74.85 76.91 78.18 79.90 80.52 80.57 80.97 80.17 80.53 80.63 80.63 80.90 80.22 79.03 78.28 76.33 75.69 74.46 73.86 73.80 72.78 73.66 73.36 72.27 72.56
63.66 64.24 66.40 69.26 71.06 71.75 73.41 73.21 74.14 75.77 77.58 79.11 80.17 80.28 80.18 80.01 79.89 79.71 80.10 79.30 79.57 79.36 79.05 77.17 75.39 75.05 74.41 73.86 71.94 72.88 72.72 72.72 71.44
63.83 64.62 65.49 67.52 69.94 71.60 72.52 74.57 73.71 74.13 75.77 76.68 78.59 79.40 80.42 79.90 80.38 79.90 79.24 79.36 79.65 79.63 78.36 77.19 75.57 74.95 74.05 73.09 72.73 72.61 71.90 70.70 70.29
64.54 64.71 66.39 68.06 68.39 70.72 73.25 75.02 75.52 75.19 76.05 75.26 76.77 78.76 78.83 79.90 79.99 79.59 79.09 79.50 79.71 79.32 77.60 75.98 74.33 74.48 73.64 72.23 71.75 72.01 72.10 71.48 71.18
63.80 65.09 66.39 69.70 69.67 68.61 73.30 75.28 76.25 76.77 76.20 75.40 76.16 77.01 77.90 79.22 79.73 79.79 79.36 79.96 79.26 78.47 76.83 75.18 73.97 73.75 73.59 72.09 71.96 71.31 71.19 70.89 70.57
63.75 63.97 64.94 69.57 70.87 71.44 75.45 75.91 77.65 77.47 77.91 78.02 77.20 78.30 78.34 79.33 80.53 80.58 80.56 79.40 78.95 77.37 76.53 73.96 73.94 73.59 71.00 71.17 69.80 70.42 71.47 71.27 70.27
63.06 63.50 64.15 68.63 71.83 72.54 74.52 76.10 77.34 78.15 77.99 78.48 79.05 78.87 78.83 80.10 80.60 80.16 79.37 78.72 78.81 76.82 74.85 73.91 73.28 72.10 69.92 70.08 70.14 65.45 65.30 69.69 69.53
63.44 64.03 64.99 65.04 71.42 73.22 75.53 75.24 77.81 77.95 78.46 79.29 79.02 79.98 79.51 80.36 80.47 79.62 78.11 77.55 77.27 75.53 74.53 73.51 72.40 71.55 71.12 70.70 71.53 62.10 62.92 65.27 70.11
64.24 65.02 65.24 66.81 69.10 72.82 74.41 75.23 76.02 78.16 77.70 79.03 79.26 79.14 79.75 80.35 79.55 78.21 76.84 76.48 76.71 76.34 74.55 72.84 71.50 71.53 71.77 71.27 71.43 60.92 60.86 64.11 69.76
66.08 66.97 67.54 68.10 65.95 71.83 75.20 75.90 77.81 78.76 78.33 78.27 78.50 78.33 79.18 79.02 78.40 77.77 76.60 74.26 75.01 75.55 74.45 71.99 71.66 71.51 71.66 71.02 70.99 60.27 59.71 63.18 68.68
63.82 65.28 66.28 66.91 68.68 70.70 74.01 76.46 76.12 77.63 77.15 77.74 77.74 77.97 78.45 78.72 78.37 76.77 75.48 74.79 74.79 74.97 73.94 72.19 70.47 70.03 71.38 66.91 70.15 60.48 58.20 62.59 71.32
67.13 67.33 68.72 70.08 71.96 72.42 76.87 77.41 77.63 77.20 76.93 76.12 77.29 77.38 77.35 77.50 76.50 76.23 76.21 75.04 75.23 72.69 70.85 69.73 70.16 69.02 68.85 69.53 69.15 69.84 56.23 56.49 70.57
68.99 69.30 70.32 71.11 72.10 73.87 75.57 77.81 77.95 77.37 77.33 78.92 78.74 77.67 76.16 76.09 76.38 75.22 74.27 73.73 72.57 71.81 70.01 70.22 69.82 68.70 68.59 71.30 72.73 63.06 56.01 55.18 56.81
69.87 71.05 71.77 72.32 72.96 74.68 75.82 77.26 78.60 76.83 78.39 78.82 77.95 76.92 76.33 75.99 75.66 74.22 73.60 71.10 69.87 68.91 69.62 69.05 68.80 68.00 69.89 70.31 71.26 69.35 54.76 53.23 54.35
70.70 71.76 72.55 73.80 73.16 73.31 75.16 77.26 77.30 77.04 77.33 78.17 76.85 75.40 74.29 72.95 71.77 71.28 71.71 69.88 69.45 69.36 68.35 68.09 68.30 67.66 68.15 68.74 69.57 68.00 65.55 62.85 59.77
69.86 70.64 71.86 72.80 72.75 73.10 73.35 74.46 74.60 75.15 75.26 75.65 74.14 72.85 72.09 70.91 70.96 71.09 68.19 62.19 61.96 68.80 66.18 62.18 68.81 67.45 66.81 65.75 65.52 65.04 56.51 57.47 61.45
69.99 70.64 71.72 72.03 72.75 72.24 72.92 73.23 73.45 74.39 74.80 74.21 72.88 71.26 70.52 68.93 68.78 68.15 68.45 66.33 61.37 45.07 46.38 44.85 45.83 48.43 60.68 60.76 51.29 45.43 43.67 43.20 44.34
66.41 69.92 70.42 71.09 71.58 72.20 71.96 71.96 72.21 73.12 73.75 73.20 72.19 71.14 70.21 69.92 68.57 69.37 68.57 67.68 65.99 62.99 53.18 44.20 42.50 42.80 43.80 47.74 46.90 43.30 42.71 41.73 42.24

GFSFLT1_sfc_wetblb_030.txt.gz
Wetbulb
67.41 68.82 69.75 70.32 70.91 70.96 72.94 73.48 74.42 75.24 76.87 77.41 78.41 78.33 78.81 78.76 78.19 78.33 77.96 77.82 76.84 74.72 75.24 73.84 75.21 75.99 76.44 75.53 74.50 74.40 73.17 71.45 70.41
64.71 66.20 69.31 69.99 71.73 72.15 72.43 73.74 74.12 74.94 77.22 77.53 78.42 78.95 78.94 79.07 78.99 78.13 77.38 78.32 77.47 77.83 76.40 77.18 75.19 75.21 75.62 74.91 74.08 73.17 73.39 71.36 70.58
65.21 65.44 69.06 69.68 70.22 71.73 72.45 73.73 74.88 75.58 76.31 77.76 78.74 79.31 79.29 78.82 79.19 79.23 78.33 77.95 77.80 76.23 78.55 76.51 75.54 74.79 74.80 74.13 74.04 73.60 73.59 71.34 72.64
65.26 64.61 67.75 69.62 70.31 71.34 72.37 72.98 74.10 74.74 75.39 77.45 78.36 79.11 79.13 79.02 78.90 79.40 78.48 77.85 77.43 77.60 77.47 76.79 74.84 74.23 73.85 73.73 73.42 73.23 72.35 71.75 71.49
65.74 65.86 65.73 67.21 70.58 71.32 71.92 71.85 72.81 73.79 74.81 75.21 77.81 78.84 78.80 79.04 79.34 79.12 78.55 77.24 78.36 78.63 76.92 76.78 74.68 74.37 73.79 73.17 72.75 72.64 71.98 70.40 69.76
65.89 67.24 69.22 69.63 69.37 71.06 72.06 72.05 72.06 72.73 73.96 74.80 76.90 78.33 78.39 78.69 78.71 78.39 78.16 78.15 77.03 78.12 77.67 76.88 74.92 74.23 73.31 72.91 72.19 72.07 71.68 71.07 70.38
66.32 69.09 70.43 70.75 73.25 71.94 72.15 72.73 72.60 72.87 73.36 75.06 75.82 77.67 77.69 77.74 78.22 78.31 78.04 78.22 78.01 78.03 78.32 76.87 74.65 73.80 73.31 72.76 72.01 72.01 71.40 71.36 70.77
67.05 68.65 69.25 70.91 70.50 73.61 75.91 74.01 73.80 73.81 73.98 74.44 75.54 76.17 76.67 77.58 78.83 78.62 78.69 78.20 78.26 78.12 78.11 77.01 75.39 73.73 73.08 72.21 70.92 71.59 70.97 71.18 70.33
65.70 67.03 67.22 70.77 73.02 74.40 75.56 76.19 75.09 74.18 74.59 74.59 75.46 75.09 76.08 77.12 78.02 78.67 78.57 78.50 78.24 77.82 77.50 76.40 74.93 72.99 71.97 71.31 70.16 66.10 66.10 70.04 69.91
66.25 66.04 66.46 69.34 72.90 73.63 75.26 76.79 76.72 75.07 75.00 76.31 75.09 75.84 76.08 76.85 78.10 78.42 78.48 78.53 78.06 77.37 76.76 75.70 73.64 72.45 71.51 70.11 70.30 63.62 63.68 66.56 69.83
66.95 67.65 67.32 69.77 67.78 72.97 75.28 75.62 75.85 78.11 76.75 76.82 76.25 76.83 76.83 77.79 78.44 78.47 78.59 78.13 77.52 77.25 76.43 74.29 72.30 71.71 70.87 70.16 71.15 61.43 61.72 64.61 67.62
65.69 67.05 69.52 70.62 67.64 66.88 74.19 74.47 76.22 76.71 77.48 76.58 77.04 76.39 78.51 78.59 78.88 78.47 78.11 77.15 76.86 76.28 75.41 72.94 71.68 71.19 70.67 70.52 70.97 60.70 59.55 62.40 66.48
63.25 64.51 65.37 68.95 69.45 68.22 69.75 74.76 75.96 76.56 76.50 77.10 76.01 77.74 78.33 79.50 79.36 78.53 77.43 77.03 76.46 76.94 76.06 72.97 71.06 69.96 70.45 67.76 69.92 59.13 57.90 61.27 66.27
63.90 64.96 66.09 67.94 70.13 71.86 77.58 75.51 76.01 76.10 76.70 76.55 77.61 78.91 79.29 79.34 79.01 78.41 78.17 76.48 75.71 74.95 74.24 73.59 71.49 69.83 69.47 70.54 68.82 68.72 56.61 56.37 67.22
68.33 71.01 70.97 71.06 74.82 76.19 78.15 77.22 78.22 76.93 76.87 78.65 79.00 78.51 78.50 78.23 78.27 76.32 76.36 74.43 73.55 72.82 71.55 70.95 69.77 68.52 68.32 69.34 69.71 63.38 55.77 54.96 56.92
68.98 70.11 72.25 73.07 75.30 78.25 78.83 80.66 78.29 76.79 78.77 78.60 78.21 77.45 76.96 76.30 76.10 75.37 74.31 72.66 72.60 69.69 70.11 68.26 67.85 67.64 66.96 67.45 70.83 70.63 56.73 52.99 54.24
70.36 71.99 73.34 74.86 75.24 75.95 76.85 78.38 78.75 78.41 77.80 77.38 76.52 75.86 75.65 75.40 73.76 72.30 71.70 70.65 70.62 69.06 68.03 68.24 68.54 68.22 68.73 69.96 69.94 67.59 65.17 62.99 59.42
71.69 73.41 74.49 75.10 75.51 75.43 76.53 77.39 77.07 77.41 77.07 76.70 75.41 74.75 72.77 71.52 70.76 69.24 62.67 57.59 56.22 67.73 60.82 61.80 68.80 68.79 69.28 68.23 67.24 66.39 61.55 61.07 62.84
70.81 71.72 73.32 73.21 72.52 71.77 73.19 74.92 74.58 74.70 75.98 75.64 73.56 71.18 71.04 69.46 68.10 66.27 63.30 61.92 57.92 45.96 46.40 44.95 45.43 48.79 61.70 55.45 51.20 46.51 45.41 44.20 45.14
64.73 68.83 70.08 71.20 71.51 71.94 72.66 73.23 74.11 75.27 75.21 73.96 71.73 69.83 69.86 69.37 68.35 68.55 67.07 65.49 63.17 58.42 50.99 44.97 43.23 43.90 47.62 50.16 46.88 43.70 43.11 43.03 44.18

GFSFLT1_sfc_wetblb_033.txt.gz
Wetbulb
63.56 63.94 65.78 65.60 66.10 68.20 69.59 70.15 71.91 73.37 73.35 73.23 74.57 74.70 73.94 74.12 74.25 75.37 73.54 73.00 72.92 71.03 70.96 70.22 70.91 73.14 72.78 71.90 70.00 68.78 68.25 66.57 66.97
62.19 63.66 65.86 66.51 66.51 67.82 69.67 70.00 71.57 72.68 73.65 73.89 74.62 75.03 74.95 74.48 74.25 74.42 75.35 73.73 72.38 72.96 71.12 71.37 71.14 73.25 72.91 71.78 69.90 69.76 68.43 66.85 66.08
61.92 62.55 64.36 67.28 67.50 67.49 70.01 70.81 71.38 73.00 74.85 74.29 75.10 75.09 75.72 75.78 75.58 75.11 74.99 74.77 73.53 72.71 73.02 72.34 71.34 73.30 72.66 71.45 70.34 69.61 68.34 66.94 67.74
63.63 64.27 64.50 66.37 68.12 68.37 69.85 71.05 71.46 71.91 74.31 74.65 75.07 75.44 75.33 75.60 76.01 76.22 75.43 74.88 74.20 73.51 72.57 72.29 71.99 72.83 72.25 71.18 70.64 69.83 68.64 67.07 66.69
63.47 64.57 65.35 65.76 67.96 68.86 68.80 70.46 71.21 71.74 74.56 74.71 75.66 76.03 76.27 75.85 76.00 76.67 76.32 75.37 74.60 74.62 72.93 72.81 72.44 72.02 71.90 71.03 70.56 69.69 68.97 67.66 67.39
63.14 62.90 61.23 64.67 67.19 68.39 69.02 70.11 71.05 71.68 73.64 74.92 75.70 76.10 76.30 76.42 76.01 75.85 76.56 75.97 75.21 74.84 74.26 73.12 72.22 71.72 71.05 70.93 70.63 69.96 69.41 68.22 66.27
61.54 62.80 62.81 62.22 67.06 67.38 68.53 69.13 70.69 71.39 72.32 74.69 75.65 76.11 76.10 75.85 76.05 76.22 76.34 76.76 75.35 74.92 75.35 73.70 71.84 71.50 71.01 70.68 70.54 69.90 69.57 68.56 67.35
60.15 62.23 63.40 62.25 65.91 67.06 68.08 68.13 69.31 70.83 71.84 72.45 74.93 75.19 75.58 75.52 76.20 76.70 76.66 76.37 76.14 74.74 75.13 74.67 72.32 71.17 71.12 70.81 70.42 69.88 68.89 68.53 67.71
59.87 62.03 64.42 64.51 64.29 67.41 67.97 68.02 68.19 69.64 70.79 71.69 72.49 74.04 74.76 75.49 75.44 76.24 76.08 75.99 75.77 75.47 74.56 75.17 73.19 71.22 70.68 69.99 70.79 66.24 67.09 68.63 68.30
59.73 60.32 62.84 64.70 65.75 66.21 67.55 69.63 69.67 69.27 70.03 71.42 71.89 71.81 73.69 74.53 75.06 75.47 75.74 75.94 75.47 75.35 74.69 75.20 73.38 71.74 70.61 69.01 69.16 64.29 65.01 67.03 68.18
60.25 61.24 62.21 62.80 68.36 67.43 68.05 71.67 70.95 71.01 71.02 70.92 71.38 71.89 72.48 74.06 74.42 75.34 75.94 75.74 75.38 75.33 75.32 74.02 72.66 71.20 70.32 68.80 68.65 63.13 61.68 64.58 67.34
57.12 59.98 60.96 63.45 63.98 68.66 70.13 71.16 72.63 71.30 70.98 71.60 70.87 71.43 72.01 73.65 74.51 74.98 75.76 75.45 75.53 75.42 74.76 73.72 71.83 70.19 69.10 68.12 67.76 61.98 60.15 61.48 65.32
59.10 60.27 59.82 61.76 63.59 63.42 69.03 68.82 73.47 72.05 71.43 72.09 71.06 71.47 72.94 73.85 74.72 75.37 75.73 75.89 75.29 74.56 73.69 72.26 70.74 69.59 69.09 66.35 68.16 60.08 58.81 60.35 64.99
61.00 59.51 60.36 59.91 60.86 62.11 63.56 68.72 72.56 72.95 72.47 71.54 73.64 73.93 75.33 75.67 76.18 76.45 76.37 75.37 74.89 74.41 72.08 70.81 69.57 68.68 68.58 68.75 68.07 64.52 56.78 56.76 64.92
64.71 66.02 66.80 66.03 62.93 64.65 66.45 68.63 72.23 71.68 72.63 73.62 73.77 75.42 76.34 76.28 76.38 76.25 74.97 73.58 72.99 72.59 71.46 69.73 68.31 67.22 66.14 66.93 67.81 63.15 55.83 55.29 58.62
64.74 64.95 65.71 67.57 71.25 73.63 74.50 73.25 72.27 72.24 74.12 75.36 75.64 75.88 75.54 75.59 74.63 74.29 72.73 71.31 70.21 69.40 68.81 67.93 66.01 66.23 65.50 65.79 67.60 67.53 57.09 54.12 54.85
68.56 69.50 70.32 71.88 72.56 72.50 73.00 74.43 75.47 75.35 75.40 75.62 75.25 73.97 73.23 72.19 71.80 71.02 70.86 69.65 69.24 68.47 67.67 67.17 66.63 66.49 65.58 64.82 65.31 64.04 59.98 58.37 56.68
69.59 70.41 71.64 71.97 72.00 72.71 73.27 74.22 74.00 74.43 74.70 74.40 73.16 72.60 70.68 69.51 68.09 63.55 58.63 55.20 61.28 65.39 59.74 62.75 67.25 67.04 66.85 65.00 64.43 63.25 59.38 58.53 59.76
68.50 68.70 69.52 70.25 71.37 71.97 72.42 73.32 73.41 73.44 73.07 71.83 70.41 68.84 68.59 65.68 64.32 62.90 60.39 58.05 53.21 45.86 46.59 45.44 46.61 50.72 57.77 53.78 54.37 50.44 49.66 49.86 50.50
64.13 66.65 67.06 67.26 68.16 68.90 69.10 69.06 68.32 71.52 70.78 69.46 69.37 68.27 66.70 65.43 63.68 63.64 61.77 59.80 57.95 53.85 50.47 45.68 43.66 44.47 46.73 49.41 46.89 44.94 43.78 43.29 44.73

GFSFLT1_sfc_wetblb_036.txt.gz
Wetbulb
63.90 63.08 64.04 64.73 65.84 67.27 67.68 68.66 70.37 71.33 70.90 71.49 72.27 72.16 72.23 72.86 72.89 72.40 70.95 70.05 70.54 71.09 70.58 70.57 71.95 71.11 71.29 68.70 67.57 66.21 65.73 64.32 64.02
62.83 62.98 63.50 64.35 65.48 66.98 68.07 68.66 70.20 71.11 71.09 71.24 72.34 72.35 71.78 71.68 72.68 73.60 73.38 71.58 71.35 69.91 69.55 69.43 71.37 71.09 71.08 69.48 68.53 67.08 66.14 64.90 64.57
62.99 63.54 63.88 64.40 65.23 66.83 68.46 68.91 70.72 71.58 71.82 71.33 72.18 72.94 72.84 72.29 72.00 73.16 73.88 73.27 71.80 71.43 70.13 70.29 69.85 70.94 70.93 69.96 68.73 67.68 66.83 65.21 64.72
63.08 62.78 64.03 64.86 65.46 66.11 68.09 69.48 69.99 71.56 71.77 71.55 71.75 72.86 73.14 72.73 72.34 72.14 73.08 73.93 73.62 72.21 71.79 70.73 69.59 71.52 71.20 70.42 69.01 68.25 66.67 65.49 65.92
63.03 62.90 65.05 65.70 66.23 66.59 66.44 68.73 69.35 70.93 72.34 72.04 72.29 73.26 73.27 73.39 73.27 73.27 72.31 72.56 73.82 73.58 71.98 71.51 70.71 70.64 71.69 70.74 69.85 68.52 67.59 65.76 66.35
61.39 62.83 61.65 64.54 66.34 65.50 65.96 68.26 69.09 70.43 72.11 72.62 73.11 73.57 73.31 73.65 73.77 73.88 73.47 73.16 73.11 74.13 73.14 71.38 70.95 70.79 71.15 70.66 70.26 68.86 68.25 67.20 65.87
60.96 61.37 61.42 60.18 62.46 65.06 66.72 68.34 69.23 69.74 71.18 73.60 73.63 73.82 73.58 73.19 73.81 74.50 74.49 74.38 73.77 73.58 73.86 72.02 71.01 70.88 70.99 70.72 70.35 69.66 68.57 67.83 66.43
61.47 61.55 60.60 62.55 63.24 64.38 66.94 67.72 69.26 69.92 70.68 72.87 73.87 73.95 73.75 73.59 74.23 74.86 74.99 75.13 75.05 74.25 73.53 73.41 71.88 70.74 70.13 70.09 69.90 69.93 68.81 68.34 67.04
59.92 58.56 59.92 60.52 62.00 63.96 66.75 67.81 69.05 69.85 70.45 72.45 73.57 73.64 73.94 74.57 74.83 74.83 74.68 75.10 75.42 74.47 73.98 73.68 71.81 70.76 69.99 69.08 70.26 66.72 66.41 68.51 67.89
57.37 60.33 60.54 61.29 62.46 64.52 67.21 68.15 69.61 69.66 70.25 71.68 73.18 73.36 74.12 74.36 74.71 74.73 74.78 74.90 75.10 74.68 73.70 74.00 71.66 70.16 70.00 69.69 69.93 64.37 64.96 66.90 68.27
57.37 58.43 59.12 60.79 63.47 65.39 67.17 68.16 68.50 70.05 70.58 70.91 71.48 73.05 73.41 74.25 74.54 74.38 74.88 75.05 74.79 74.80 74.19 73.39 72.17 70.37 70.20 69.85 70.00 63.09 62.77 65.45 68.76
57.97 58.23 58.64 60.09 63.38 66.49 67.01 67.73 67.96 68.13 68.41 69.73 70.23 70.75 72.38 73.44 74.48 74.03 74.58 74.48 74.63 74.74 74.69 73.60 73.22 71.41 70.59 69.90 69.99 60.95 60.91 63.33 67.62
55.99 56.01 57.55 61.34 62.76 65.16 65.76 68.99 69.42 67.87 67.40 68.40 68.89 70.04 70.44 72.94 74.15 74.04 74.26 74.63 74.67 74.93 74.91 73.76 72.71 71.49 71.23 68.01 69.35 60.12 58.27 60.75 64.46
58.03 57.20 56.91 57.93 58.41 61.44 67.46 68.96 69.69 68.07 67.98 67.64 69.43 70.53 70.97 71.34 73.41 73.73 74.75 75.03 75.25 74.99 74.39 72.40 71.70 70.48 69.94 68.47 66.77 63.74 57.48 56.97 64.61
62.95 63.29 64.29 61.63 57.14 57.38 58.03 66.63 71.39 69.23 68.11 70.13 70.29 69.77 70.38 71.22 72.90 73.76 74.62 75.05 75.15 74.17 73.04 71.20 69.90 67.23 66.26 67.12 67.01 60.69 55.48 55.06 58.99
65.63 65.22 64.42 68.96 64.01 64.92 67.45 63.79 70.44 70.24 70.26 70.53 71.46 70.45 71.78 72.04 73.27 74.43 75.28 74.77 73.95 72.86 71.59 69.22 67.59 66.96 66.14 65.92 67.19 64.93 55.92 53.82 55.38
68.16 69.02 69.05 69.98 70.02 69.43 69.77 70.37 68.12 70.12 70.81 71.42 72.52 71.94 74.04 74.65 74.57 74.00 74.37 74.16 72.95 71.21 69.53 67.97 67.03 66.10 66.05 65.53 65.53 65.35 61.41 58.16 56.70
68.11 68.99 69.58 70.25 70.03 69.51 70.01 70.48 71.08 72.42 73.91 74.40 74.06 73.70 73.56 72.81 71.34 71.25 65.73 60.18 65.17 68.68 64.46 65.94 67.01 66.72 66.13 65.11 65.15 64.26 59.45 57.80 59.71
66.20 67.12 68.04 68.61 68.99 69.76 70.01 70.82 70.87 72.08 73.51 73.14 71.91 70.55 68.11 66.01 64.54 62.95 61.28 59.67 55.53 48.85 49.79 51.32 49.32 54.04 60.21 57.80 55.81 50.41 48.42 46.60 47.51
63.09 65.64 66.25 66.87 67.12 67.50 68.50 68.34 69.26 69.08 69.96 69.64 69.17 66.73 65.35 63.65 62.71 61.96 60.74 59.69 58.20 55.39 50.43 45.15 45.29 44.87 47.51 51.14 49.14 47.15 45.70 45.33 45.99

GFSFLT1_sfc_wetblb_042.txt.gz
Wetbulb
62.40 63.47 65.32 65.49 66.04 66.07 65.87 67.52 68.55 68.44 68.73 68.55 69.75 70.39 70.53 71.10 71.30 70.74 70.83 70.46 70.46 70.38 70.90 71.97 73.06 72.83 72.76 71.49 70.86 70.25 67.84 65.90 65.02
60.10 61.25 63.49 65.09 65.99 66.38 66.22 66.91 68.01 68.39 68.62 69.00 69.59 70.37 70.83 71.15 71.55 71.38 70.66 70.87 70.40 70.65 71.51 72.01 72.51 73.01 72.80 71.51 70.62 69.42 67.79 66.12 65.29
60.11 60.88 61.59 64.22 65.50 66.00 66.41 66.86 68.04 68.97 69.04 68.96 69.61 70.71 71.13 71.30 71.48 71.65 71.48 71.23 69.74 70.29 70.74 71.79 71.85 72.34 72.57 71.41 70.49 68.59 67.41 66.44 66.05
59.83 60.56 61.44 62.91 64.73 65.98 66.33 66.71 67.38 68.25 68.76 69.00 69.23 70.76 71.25 71.48 71.48 71.75 71.62 71.18 70.50 70.42 70.67 70.86 71.02 71.79 71.84 71.47 70.07 68.66 67.20 66.65 65.96
59.15 61.18 61.94 62.85 64.15 65.07 65.50 65.47 66.57 67.32 68.27 69.11 69.67 70.36 71.17 71.35 71.60 71.67 71.20 71.08 71.15 71.26 70.47 70.46 70.65 71.34 71.59 71.36 70.35 69.15 67.98 66.56 66.47
57.44 59.49 61.29 62.75 63.29 63.68 64.58 65.17 65.88 66.81 68.01 68.93 70.09 70.31 70.57 71.09 71.25 71.40 71.25 71.35 72.07 71.75 71.23 70.42 70.09 70.83 70.89 70.74 70.57 69.58 68.78 68.14 67.28
56.26 58.10 60.09 61.94 63.03 63.18 64.15 64.89 65.71 66.61 67.71 69.18 69.98 70.16 70.28 70.16 70.76 71.08 71.57 72.06 72.44 72.47 72.10 71.01 70.20 70.18 70.73 70.87 70.74 70.39 69.61 68.64 67.92
57.78 58.61 59.54 60.15 62.28 62.61 62.89 63.91 65.39 66.80 67.84 69.08 70.06 69.71 69.91 70.32 70.88 71.05 71.33 71.40 72.04 72.54 72.93 72.31 71.28 70.39 70.26 70.53 70.63 70.42 69.85 69.33 68.55
56.16 57.84 59.61 60.28 62.00 62.86 62.84 63.40 64.93 66.74 67.52 68.84 69.92 69.76 69.44 70.54 71.02 71.20 71.01 70.96 71.08 71.40 72.24 72.83 72.30 71.53 70.74 70.05 70.41 66.86 65.92 68.85 68.97
53.68 57.32 59.18 59.66 60.78 62.18 63.51 63.44 64.99 66.27 67.35 69.30 69.46 69.73 69.99 70.38 70.86 70.95 71.18 71.43 71.17 70.50 70.53 71.80 72.20 71.94 71.57 70.75 70.76 64.35 64.49 66.63 69.92
50.92 54.26 58.59 60.02 60.98 61.83 63.23 64.94 64.87 66.47 67.79 68.51 69.59 69.73 69.93 70.58 70.93 70.86 71.47 71.69 71.43 71.18 71.25 70.73 71.01 71.52 71.81 71.53 71.36 63.26 62.58 65.64 70.38
52.23 53.38 57.03 60.49 62.21 62.40 63.13 63.37 65.72 65.94 66.68 67.73 69.18 69.76 70.19 70.81 71.33 70.96 71.32 71.42 71.83 72.21 72.06 71.71 71.39 71.81 71.69 70.94 71.02 61.35 60.86 63.70 69.81
53.46 54.90 56.52 57.69 59.50 60.82 60.67 61.24 62.73 64.90 66.27 67.01 67.60 69.92 70.74 71.58 71.92 71.84 71.42 71.76 72.18 72.93 73.16 72.93 73.03 72.29 72.16 68.93 71.26 59.95 58.94 63.52 69.16
54.56 55.35 55.81 56.75 58.28 61.07 62.52 62.78 64.46 64.99 66.12 66.58 68.22 69.84 71.43 71.85 72.48 72.51 72.54 72.68 72.98 73.05 73.22 73.59 73.44 73.03 73.06 71.70 70.50 68.26 57.20 59.88 69.04
55.27 55.38 56.75 57.01 58.41 58.98 61.13 64.30 65.47 65.24 65.83 67.83 69.30 69.65 70.81 71.35 72.41 73.15 73.29 73.12 73.19 73.46 73.28 73.03 73.18 72.75 72.03 71.15 71.14 61.73 55.38 58.22 61.30
61.20 64.90 65.18 58.80 54.90 62.12 65.70 64.22 65.54 64.03 64.95 66.99 67.39 68.58 69.33 71.43 72.83 73.01 73.46 73.29 73.22 73.14 73.55 72.91 72.61 72.40 71.41 70.81 71.03 62.91 55.91 55.75 58.12
67.87 68.14 68.35 69.16 69.07 68.35 68.35 70.20 68.61 67.29 67.65 67.91 66.45 66.43 67.23 68.16 69.02 70.82 72.73 73.77 73.97 73.62 73.28 73.16 72.70 71.73 70.85 69.41 67.42 65.38 61.36 61.56 61.85
66.75 67.56 67.81 68.34 68.45 68.75 68.64 69.76 70.67 71.96 71.36 69.13 67.84 66.88 66.52 68.12 68.17 61.96 59.47 57.30 59.92 63.38 59.90 68.21 67.87 67.89 67.42 65.83 64.50 61.28 55.37 57.34 63.09
65.25 65.27 67.06 67.11 67.47 67.94 68.53 68.80 69.25 70.47 71.78 71.37 70.69 69.07 68.28 65.40 62.56 62.08 63.33 61.35 59.01 50.15 52.14 50.87 51.05 53.23 59.23 61.52 55.95 50.69 51.78 49.60 49.79
61.68 63.74 64.63 64.45 65.35 65.12 65.02 66.05 67.62 68.48 68.32 68.26 66.85 64.77 63.71 63.05 62.67 64.43 64.23 64.01 61.67 58.99 55.93 49.97 51.24 51.60 52.69 53.59 50.69 53.77 50.15 46.34 47.43

GFSFLT1_sfc_wetblb_045.txt.gz
Wetbulb
67.04 67.45 68.67 69.17 70.77 71.06 70.76 71.69 72.53 73.07 73.23 73.30 74.16 74.64 74.72 75.30 75.98 75.04 74.91 75.58 74.49 74.17 74.40 74.93 77.32 76.85 77.27 77.20 77.03 76.71 75.74 74.00 72.79
65.24 66.92 67.91 68.50 69.43 70.71 70.96 71.27 72.18 73.00 73.38 73.39 74.20 74.42 74.73 75.09 75.50 75.46 75.00 76.32 76.57 74.81 76.63 75.44 76.18 76.63 76.71 77.15 77.02 76.62 75.66 73.92 72.73
64.34 66.13 67.24 68.43 69.94 70.77 71.44 71.43 72.29 73.46 73.66 73.51 73.95 74.47 74.75 74.68 74.99 75.70 76.00 76.25 76.17 76.17 77.00 76.58 76.10 76.60 77.13 77.13 76.76 76.38 75.54 74.47 73.83
63.47 64.58 65.73 66.87 69.11 71.00 71.83 72.15 71.54 72.42 73.20 73.48 73.83 74.21 74.72 74.86 75.00 75.46 75.91 75.74 76.11 76.27 76.91 77.06 76.86 76.79 76.78 76.52 76.17 76.17 75.13 74.62 73.65
62.65 64.40 65.60 66.62 67.02 69.20 70.44 71.39 71.55 71.75 72.74 72.76 73.57 74.10 74.62 74.65 75.44 75.58 75.43 75.61 75.93 76.48 76.21 76.93 76.92 76.96 76.53 76.33 76.13 75.94 74.92 73.93 73.27
62.42 64.32 65.94 66.79 67.19 68.40 69.94 70.58 70.86 71.12 72.10 72.34 73.26 73.97 74.23 74.60 74.77 74.80 74.90 75.31 76.03 76.29 76.24 76.47 76.31 76.53 76.33 75.83 75.81 75.46 75.17 74.58 73.60
60.45 63.71 65.69 67.08 67.64 68.11 69.85 70.70 70.80 70.91 71.78 72.64 72.95 73.48 73.61 73.58 73.90 74.57 74.83 75.37 75.77 76.13 76.18 75.94 76.17 76.24 76.43 76.60 76.29 75.59 75.01 74.42 73.97
60.03 61.88 64.17 66.09 67.46 68.98 69.68 70.39 70.83 71.17 71.55 72.85 73.26 73.25 73.13 73.31 74.72 75.33 75.50 75.48 75.79 76.01 76.19 75.83 76.16 75.70 75.80 76.28 75.97 74.97 75.22 74.56 74.05
60.41 61.20 63.39 66.29 67.87 69.10 69.99 69.97 70.27 70.62 71.33 71.98 73.10 73.21 72.98 73.92 74.65 75.11 75.03 75.38 75.62 75.82 75.97 76.00 76.12 75.50 75.37 75.30 74.73 68.58 67.77 73.16 74.12
60.42 61.64 64.27 66.21 67.64 69.28 70.52 69.85 70.48 70.45 71.21 72.74 72.94 73.07 73.48 74.14 74.70 74.57 74.88 75.33 75.57 75.24 75.46 76.41 75.81 75.79 75.37 75.02 75.44 64.86 65.19 67.46 75.11
61.21 62.32 62.79 64.47 65.43 67.77 69.77 70.02 69.49 71.29 71.82 72.42 72.93 73.14 73.72 74.41 74.72 74.19 74.84 74.97 74.70 75.01 75.30 75.34 75.84 75.75 75.92 75.34 75.08 63.72 63.05 66.07 73.81
61.82 63.19 64.64 64.25 64.17 66.07 70.41 70.67 71.27 71.29 71.80 72.19 72.85 72.82 73.60 74.12 74.27 74.45 74.82 74.48 74.26 74.80 74.79 74.73 74.96 76.00 76.14 75.58 75.53 62.37 61.34 65.08 72.77
60.29 61.38 62.50 63.17 64.85 65.81 67.32 69.89 69.91 70.85 71.30 71.95 72.16 73.03 73.45 74.47 74.68 74.62 74.49 74.76 74.73 75.58 75.29 74.83 74.32 75.09 76.00 72.41 75.98 62.56 59.82 64.55 72.93
62.09 63.34 63.68 64.63 64.71 66.04 69.06 69.20 70.89 70.92 71.55 71.33 72.58 74.13 74.80 75.19 75.43 75.19 74.94 75.60 75.90 75.98 75.49 75.41 75.55 75.14 75.53 75.96 74.30 74.13 58.02 59.13 73.01
60.72 62.75 62.78 62.71 64.31 65.58 67.20 69.26 70.27 70.77 71.56 73.06 74.64 74.88 74.20 75.27 75.85 74.83 74.79 75.51 74.05 75.83 74.38 72.32 75.55 75.82 74.58 74.35 74.72 64.05 56.62 57.34 61.66
63.58 68.40 67.61 62.98 64.77 67.84 69.17 70.35 70.54 71.53 73.50 73.39 73.42 73.45 74.21 74.97 75.40 75.39 76.31 75.84 75.32 74.15 74.69 72.74 73.31 73.85 73.85 73.06 72.32 72.02 57.40 55.20 56.51
69.97 71.00 69.36 68.99 71.70 70.84 70.76 71.80 71.94 72.27 72.43 73.94 74.62 73.93 74.41 74.84 74.52 74.80 75.71 75.49 75.36 74.53 74.49 74.73 73.99 74.03 73.18 73.02 71.85 69.27 63.16 59.79 60.25
68.86 68.66 69.38 70.57 70.75 70.79 71.59 73.26 74.05 74.83 73.21 73.56 72.57 72.98 73.12 73.31 73.81 73.41 70.60 66.28 68.86 75.98 77.07 73.32 75.32 74.76 72.46 66.92 62.45 60.28 57.90 59.83 64.12
68.27 68.07 69.08 69.04 69.33 69.32 70.35 72.51 73.35 72.61 74.48 74.51 73.32 71.87 70.79 67.69 66.78 67.02 65.15 63.40 60.67 50.69 51.60 52.14 52.14 52.51 60.17 61.56 52.99 48.52 49.97 50.15 49.79
62.34 65.30 65.55 66.04 66.26 67.27 69.17 70.69 69.85 70.85 71.45 71.19 69.67 68.17 66.25 65.31 65.94 65.35 64.14 65.15 63.78 60.78 57.14 48.52 48.70 50.87 50.87 53.05 53.96 50.51 50.87 51.24 48.88

GFSFLT1_sfc_wetblb_048.txt.gz
Wetbulb
68.75 69.68 70.91 71.13 71.94 72.41 72.37 72.58 75.13 75.79 77.23 77.47 77.24 77.13 78.50 79.14 79.59 76.29 76.15 77.85 76.29 76.05 75.77 75.83 78.03 77.78 78.37 78.92 78.79 79.07 79.03 77.74 76.66
64.38 67.78 70.30 71.17 72.13 72.69 73.32 73.71 75.19 76.60 77.45 78.12 78.06 77.22 78.95 79.00 78.87 78.70 77.08 79.16 79.74 77.03 79.23 76.71 77.53 77.60 78.08 78.43 78.73 79.07 79.00 77.46 76.92
63.76 65.66 68.82 70.83 72.05 72.82 73.73 74.18 74.98 76.31 77.65 78.08 78.34 78.12 78.30 77.79 78.53 78.92 79.19 79.49 79.16 79.59 79.80 79.32 78.01 77.63 77.66 78.14 78.56 78.95 79.07 77.98 77.79
63.26 65.11 67.77 70.58 71.69 72.63 73.80 74.54 74.46 74.89 76.26 77.40 77.11 77.67 78.19 78.54 78.40 78.08 78.54 78.35 79.45 79.86 80.16 80.57 79.06 79.23 77.75 77.42 78.27 78.97 78.68 78.45 77.85
63.30 65.38 66.80 69.50 70.86 72.20 72.77 73.35 73.95 74.24 74.82 75.23 76.02 77.61 78.46 78.36 78.89 78.88 78.24 78.49 79.28 80.05 79.86 80.68 80.63 79.52 78.94 78.09 77.96 79.16 78.34 77.64 77.06
63.41 64.71 66.08 67.52 68.43 69.48 70.96 72.55 74.94 73.92 74.21 74.79 75.65 77.13 76.28 77.52 78.19 78.51 78.67 79.15 79.26 79.55 79.78 80.12 79.69 80.04 79.84 79.10 78.57 78.65 78.32 78.07 77.41
61.83 63.90 65.82 66.96 67.87 68.55 69.64 72.15 75.72 76.12 74.67 74.65 75.35 75.69 76.06 77.07 78.13 78.33 78.61 79.05 79.15 79.19 79.83 79.77 79.98 80.18 80.29 79.81 79.36 78.89 78.22 77.68 77.47
61.22 62.64 64.14 66.19 68.39 69.48 71.42 72.37 75.46 76.49 75.77 76.35 75.94 76.69 76.69 76.93 78.22 79.08 79.26 79.16 79.48 79.67 79.86 79.74 80.01 79.79 80.11 79.90 79.27 77.51 78.65 78.78 78.15
59.97 60.80 61.91 63.84 67.54 69.23 71.48 72.49 73.33 74.90 75.60 75.48 76.49 77.21 76.61 77.68 78.31 78.99 78.84 79.01 79.23 79.63 79.60 79.80 79.72 79.51 79.61 79.13 77.99 70.52 67.93 75.58 78.16
60.61 61.51 62.78 64.21 66.78 69.30 71.21 73.00 73.70 74.34 75.68 75.52 76.27 76.77 77.50 77.92 78.39 78.44 78.84 78.71 78.90 79.06 78.98 79.09 79.24 79.24 79.23 78.90 79.29 66.77 65.79 68.55 78.06
61.01 61.66 62.69 64.79 65.08 66.58 70.46 71.64 71.80 74.34 74.42 76.02 76.18 76.53 77.01 78.03 78.31 78.24 78.67 78.82 78.56 78.99 78.98 78.67 79.04 79.12 79.18 79.18 78.97 66.20 63.57 66.55 76.48
62.30 63.36 64.02 64.94 65.07 64.91 66.86 68.67 71.19 73.38 73.82 74.29 74.93 76.13 76.52 77.46 78.07 78.07 78.42 78.13 78.18 78.95 78.12 78.03 77.81 78.26 79.18 79.20 78.70 63.33 61.36 65.67 75.54
62.89 63.52 64.09 64.07 65.10 65.40 65.92 67.84 69.69 72.26 73.36 74.88 75.53 76.16 76.83 77.97 78.48 78.28 78.06 78.31 78.30 78.70 78.39 76.88 76.86 76.87 78.38 73.94 78.45 67.03 59.60 63.76 73.88
66.65 66.64 65.99 66.40 66.76 66.64 69.34 69.61 71.86 74.32 73.58 73.98 76.19 76.04 76.13 77.88 78.96 78.89 79.03 79.29 78.87 78.45 77.64 77.68 77.44 76.88 78.35 77.86 76.87 76.83 59.84 57.79 70.78
66.86 66.76 67.50 66.45 66.88 67.18 69.05 71.73 72.86 76.11 75.47 76.60 77.75 77.84 76.29 78.07 78.94 77.05 76.53 78.62 77.47 78.03 77.97 77.17 76.92 76.59 73.72 74.27 75.19 66.52 63.07 55.85 61.99
68.23 68.59 68.44 67.45 68.75 68.53 70.66 72.27 73.90 74.14 77.35 77.94 77.01 76.93 77.69 78.35 78.58 77.09 78.26 78.14 77.53 76.04 77.01 75.54 75.25 74.71 74.26 74.14 74.78 73.20 56.19 55.07 57.48
69.14 69.94 68.48 70.38 69.01 69.25 71.83 73.98 74.71 74.94 75.37 76.98 76.80 76.41 76.41 76.81 77.06 77.05 77.09 76.69 76.51 75.85 75.56 75.27 74.74 74.30 73.52 72.58 71.72 75.54 75.31 70.03 62.28
69.89 69.89 73.13 72.37 72.44 73.42 73.99 75.06 75.49 75.47 75.56 75.91 74.77 75.48 75.84 76.06 76.42 76.26 76.72 74.85 73.70 76.63 78.29 73.67 76.00 76.16 75.95 74.91 75.38 74.80 63.93 63.82 63.57
70.57 70.15 71.74 72.67 72.61 74.63 76.29 75.29 73.57 76.60 76.22 76.11 75.96 75.42 75.44 75.26 75.95 75.97 76.09 73.56 68.98 50.82 48.71 47.54 47.97 52.87 67.49 72.71 57.05 49.60 48.70 49.24 50.51
63.19 67.06 67.40 68.33 69.25 70.05 71.24 71.43 71.44 72.70 74.89 76.74 75.97 74.80 73.83 73.04 71.15 72.00 72.31 73.01 73.66 69.51 58.12 49.24 46.16 45.07 46.89 50.15 49.97 46.89 47.25 47.61 48.88